Other Surface Observations
Issued by NWS

Home | Current Version | Previous Version | Text Only | Print | Product List | Glossary On
Versions: 1 2 3 4 5 6 7 8 9 10 11 12 13 14 15 16 17 18 19 20 21 22 23 24 25 26 27 28 29 30 31 32 33 34 35 36 37 38 39 40 41 42 43 44 45 46 47 48 49 50
331
SXUS52 KTAE 091011
OSOTAE
OSOTAE
North Florida/South Alabama/Southwest Georgia Weather Roundup
National Weather Service Tallahassee Florida
500 AM EST FRI DEC 09 2016

Note: "fair" indicates few or no clouds below 12,000 feet with no
significant weather and/or obstructions to visibility.

!FLZ017-115-028-034-025-091100
...North Florida...

CITY           SKY/WX    TMP DP  RH WIND       PRES   REMARKS
TALLAHASSEE    CLOUDY    44  25  47 N10G16    30.36R WCI  39
APALACHICOLA   CLOUDY    46  25  43 N17G24    30.35R WCI  39
PERRY          MOCLDY    46  24  41 N8        30.35R WCI  42
CROSS CITY     PTCLDY    48  27  43 N13G18    30.31R WCI  43
JACKSONVILLE   CLOUDY    46  27  47 N10       30.30S WCI  41
$$

!FLZ112-006-005-002-011-091100
...Florida Panhandle...

CITY           SKY/WX    TMP DP  RH WIND       PRES   REMARKS
MARIANNA       MOCLDY    42  24  49 N10       30.39R WCI  36
BONIFAY        FAIR      40  27  59 N9        30.42R WCI  34
PANAMA CITY NW FAIR      42  25  50 N12       30.38R WCI  36
TYNDALL AFB    MOCLDY    44  25  47 N10       30.38R WCI  38
TYND DRONE APT FAIR      43  27  52 N16       30.38R WCI  36
DE FUNIAK SPR  FAIR      38  26  61 N8        30.41S WCI  32
EGLIN AFB      PTCLDY    39  26  57 N12       30.41R WCI  32
DESTIN         CLOUDY    44  27  51 N16G25    30.41R WCI  37
HURLBURT       PTCLDY    39  24  55 N12       30.41R WCI  32
CRESTVIEW      MOCLDY    38  26  62 N7        30.44R WCI  33
PENSACOLA      CLEAR     40  26  57 N9        30.43R WCI  34
$$

!ALZ063-066-091100
...South Alabama...

CITY           SKY/WX    TMP DP  RH WIND       PRES   REMARKS
DOTHAN         PTCLDY    37  27  67 N10       30.44R WCI  30
OZARK CAIRNS   CLOUDY    38  24  58 N9        30.41R WCI  31
FT RUCKER HELI CLEAR     37  25  61 N6        30.41R WCI  32
RUCKER HELI 3  NOT AVBL
RUCKER HELI 2  FAIR      39  24  55 N9        30.41R WCI  33
FLORALA APT    PTCLDY    36  25  64 N8        30.43S WCI  30
ANDALUSIA      CLEAR     40  24  53 N12       30.43S WCI  33
TROY           CLEAR     35  22  58 N10       30.44R WCI  27
EUFALA         FAIR      37  23  56 VRB5      30.41R WCI  33
MOBILE         CLEAR     37  24  59 N14G22    30.47R WCI  28
$$

!GAZ120>161-091100
...Southwest and South Central Georgia...

CITY           SKY/WX    TMP DP  RH WIND       PRES   REMARKS
THOMASVILLE    FAIR      43  28  56 N9        30.37S WCI  37
BAINBRIDGE     MOCLDY    41  27  56 N7        30.39R WCI  36
MOODY AFB      PTCLDY    42  23  48 N8        30.34R WCI  37
VALDOSTA       CLOUDY    41  25  53 N10       30.35R WCI  35
MOULTRIE       CLOUDY    41  27  56 N8        30.36S WCI  36
BLAKELY        PTCLDY    41  27  56 CALM      30.41R
ALBANY         MOCLDY    39  22  50 N7        30.41R WCI  34
TIFTON         FAIR      39  25  55 N7        30.35S WCI  34
FITZGERALD     FAIR      40  25  56 N7        30.38S WCI  35
CORDELE        FAIR      39  24  53 N6        30.40R WCI  35
AMERICUS       FAIR      36  18  48 N6        30.41R WCI  31
HOMERVILLE     FAIR      41  27  56 N5        30.35R WCI  38
$$

!GMZ750-755-770-775-091100
...Coastal and Buoy Obs...

STATION/POSITION TIME  TEMP    WIND        PRES    VSBY  WAVE
                       AIR SEA DIR/SP/G                  HT/PER
                 (UTC) (F)     (DEG/KT/KT) (MB)    (MI)  (FT/S)
KEATON BEACH     1000   46      10/  6/ 11 1026.6R
CEDAR KEY        1000   50      10/  8/ 11 1026.0R
C TOWER          1000   49      20/ 23/ 27 1027.2R
APALACHICOLA BUO 0950   60 74   30/ 17/ 21 1025.2R         6/ 6
PANAMA CITY BUOY 0950   57 74              1026.8R         6/ 6
MOBILE BUOY      0950   53 74   20/ 23/ 29 1028.8F         8/ 7
ORANGE BCH AL BU 0950   45 69   20/ 23/ 27 1029.8F         4/ 5
$$




USA.gov is the U.S. government's official web portal to all federal, state and local government web resources and services.